Weather History for Cape Girardeau, MO

Change the Weather History Date:

Wednesday, September 18, 2013

  Actual Average Record
Temperature  
Mean Temperature 79 °F 68 °F  
Max Temperature 89 °F 80 °F 93 °F (1965)
Min Temperature 68 °F 55 °F 43 °F (1981)
Degree Days  
Heating Degree Days 0 2  
Month to date heating degree days 3 9  
Since 1 July heating degree days 4 10  
Cooling Degree Days 14 5  
Month to date cooling degree days 158 124  
Year to date cooling degree days 1339 1384  
Growing Degree Days 28 (Base 50)    
Moisture  
Dew Point 67 °F    
Average Humidity 67    
Maximum Humidity 84    
Minimum Humidity 50    
Precipitation  
Precipitation 0.00 in 0.10 in 0.89 in (1970)
Month to date precipitation T 2.00  
Year to date precipitation 28.23 33.05  
Sea Level Pressure  
Sea Level Pressure 30.04 in    
Wind  
Wind Speed 5 mph (South)    
Max Wind Speed 12 mph    
Max Gust Speed 16 mph    
Visibility 9 miles    
Events      
T = Trace of Precipitation, MM = Missing Value Source: NWS Daily Summary

Daily Weather History Graph

Daily Weather History Graph

Search for Another Location

Airport:

Trip Planner

Search our weather history database for the weather conditions in past years. The results will help you decide how hot, cold, wet, or windy it might be!

Date:

Astronomy

Sep. 18, 2013 Rise Set
Actual Time 6:43 AM CDT 7:00 PM CDT
Civil Twilight 6:16 AM CDT 7:26 PM CDT
Nautical Twilight 5:46 AM CDT 7:57 PM CDT
Astronomical Twilight 5:15 AM CDT 8:28 PM CDT
Moon 6:24 PM CDT (9/18) 5:45 AM CDT (9/18)
Length of Visible Light 13h 09m
Length of Day
12h 17m
Waxing Gibbous, 99% of the Moon is Illuminated
Sep 18
Waxing Gibbous
Sep 19
Full
Sep 26
Last Quarter
Oct 4
New
Oct 11
First Quarter

Hourly Weather History & Observations

Time (CDT) Temp. Heat Index Dew Point Humidity Pressure Visibility Wind Dir Wind Speed Gust Speed Precip Events Conditions
12:53 AM 69.1 °F - 64.0 °F 84% 30.08 in 10.0 mi Calm Calm - N/A   Clear
1:53 AM 69.1 °F - 64.0 °F 84% 30.07 in 9.0 mi ESE 3.5 mph - N/A   Clear
2:53 AM 70.0 °F - 64.0 °F 81% 30.06 in 10.0 mi Calm Calm - N/A   Clear
3:53 AM 69.1 °F - 64.0 °F 84% 30.06 in 10.0 mi Calm Calm - N/A   Clear
4:53 AM 69.1 °F - 64.0 °F 84% 30.06 in 10.0 mi Calm Calm - N/A   Clear
5:53 AM 69.1 °F - 64.0 °F 84% 30.06 in 9.0 mi Calm Calm - N/A   Clear
6:53 AM 69.1 °F - 64.0 °F 84% 30.08 in 9.0 mi Calm Calm - N/A   Clear
7:53 AM 71.1 °F - 66.0 °F 84% 30.09 in 8.0 mi Calm Calm - N/A   Scattered Clouds
8:53 AM 75.0 °F - 68.0 °F 79% 30.10 in 8.0 mi SSW 4.6 mph - N/A   Clear
9:53 AM 78.1 °F - 69.1 °F 74% 30.11 in 8.0 mi SSW 6.9 mph - N/A   Scattered Clouds
10:53 AM 78.1 °F - 69.1 °F 74% 30.09 in 8.0 mi SW 8.1 mph - N/A   Partly Cloudy
11:53 AM 80.1 °F 82.9 °F 69.1 °F 69% 30.08 in 9.0 mi SSW 3.5 mph - N/A   Clear
12:53 PM 84.9 °F 88.8 °F 69.1 °F 59% 30.05 in 10.0 mi SW 8.1 mph - N/A   Clear
1:53 PM 86.0 °F 88.8 °F 66.9 °F 53% 30.04 in 7.0 mi SSW 6.9 mph - N/A   Mostly Cloudy
2:53 PM 88.0 °F 90.7 °F 66.9 °F 49% 30.01 in 9.0 mi SSW 10.4 mph - N/A   Clear
3:53 PM 88.0 °F 91.4 °F 68.0 °F 51% 30.00 in 9.0 mi WSW 4.6 mph - N/A   Unknown
4:53 PM 87.1 °F 89.9 °F 66.9 °F 51% 29.99 in 8.0 mi South 6.9 mph - N/A   Clear
5:53 PM 84.9 °F 87.6 °F 66.9 °F 55% 29.99 in 10.0 mi SSW 5.8 mph - N/A   Clear
6:53 PM 78.1 °F - 70.0 °F 76% 29.98 in 7.0 mi SE 5.8 mph - N/A   Clear
7:53 PM 79.0 °F - 66.9 °F 66% 29.99 in 10.0 mi South 9.2 mph - N/A   Clear
8:53 PM 75.9 °F - 68.0 °F 76% 30.01 in 10.0 mi SE 6.9 mph - N/A   Clear
9:53 PM 75.0 °F - 70.0 °F 84% 30.02 in 8.0 mi SE 8.1 mph - N/A   Clear
10:53 PM 75.0 °F - 70.0 °F 84% 30.02 in 7.0 mi SE 6.9 mph - N/A   Clear
11:53 PM 75.0 °F - 70.0 °F 84% 30.02 in 8.0 mi SSE 6.9 mph - N/A   Clear